Flagstaff, AZ

1:08 PM MST on August 28, 2016 (GMT -0700)
Flagstaff Pulliam

Weather History for KFLG - September, 2014

Change the Weather History Date:

Tuesday, September 2, 2014

  Actual Average Record
Temperature  
Mean Temperature 63 °F 62 °F  
Max Temperature 80 °F 77 °F 91 °F (1948)
Min Temperature 46 °F 47 °F 35 °F (1953)
Degree Days  
Heating Degree Days 2 4  
Month to date heating degree days 3 7  
Since 1 July heating degree days 97 95  
Cooling Degree Days 0 0  
Month to date cooling degree days 0 0  
Year to date cooling degree days 109 114  
Growing Degree Days 12 (Base 50)    
Moisture  
Dew Point 38 °F    
Average Humidity 48    
Maximum Humidity 77    
Minimum Humidity 19    
Precipitation  
Precipitation 0.00 in 0.09 in 0.86 in (1990)
Month to date precipitation 0.00 0.18  
Year to date precipitation 12.84 14.37  
Snow  
Snow 0.00 in 0.00 in 0.00 in (2002)
Month to date snowfall 0.0 0.0  
Since 1 July snowfall 0.0 0.0  
Snow Depth 0.00 in    
Sea Level Pressure  
Sea Level Pressure 29.95 in    
Wind  
Wind Speed 5 mph (SSW)    
Max Wind Speed 18 mph    
Max Gust Speed 23 mph    
Visibility 10 miles    
Events      
T = Trace of Precipitation, MM = Missing Value Source: NWS Daily Summary

Daily Weather History Graph

Daily Weather History Graph

Search for Another Location

Airport or City:

Trip Planner

Search our weather history database for the weather conditions in past years. The results will help you decide how hot, cold, wet, or windy it might be!

Date:

Astronomy

Sep. 02, 2014 Rise Set
Actual Time 6:00 AM MST 6:51 PM MST
Civil Twilight 5:34 AM MST 7:17 PM MST
Nautical Twilight 5:03 AM MST 7:48 PM MST
Astronomical Twilight 4:32 AM MST 8:19 PM MST
Moon 1:31 PM MST (9/2) No Moon Set
Length of Visible Light 13h 43m
Length of Day
12h 51m
First Quarter, 54% of the Moon is Illuminated
Sep 2
First Quarter
Sep 8
Full
Sep 15
Last Quarter
Sep 23
New
Oct 1
First Quarter

Hourly Weather History & Observations

Time (MST) Temp. Dew Point Humidity Pressure Visibility Wind Dir Wind Speed Gust Speed Precip Events Conditions
12:57 AM 50.0 °F 42.1 °F 74% 29.96 in 10.0 mi Calm Calm - N/A   Clear
1:57 AM 48.9 °F 41.0 °F 74% 29.96 in 10.0 mi Calm Calm - N/A   Clear
2:57 AM 48.9 °F 41.0 °F 74% 29.96 in 10.0 mi Calm Calm - N/A   Clear
3:57 AM 48.9 °F 39.9 °F 71% 29.97 in 10.0 mi Calm Calm - N/A   Clear
4:57 AM 46.9 °F 39.9 °F 77% 29.98 in 10.0 mi Calm Calm - N/A   Clear
5:57 AM 46.0 °F 39.0 °F 76% 30.00 in 10.0 mi Calm Calm - N/A   Clear
6:57 AM 53.1 °F 43.0 °F 69% 30.01 in 10.0 mi Calm Calm - N/A   Clear
7:57 AM 66.0 °F 46.0 °F 48% 29.99 in 10.0 mi Calm Calm - N/A   Clear
8:57 AM 72.0 °F 39.0 °F 30% 29.99 in 10.0 mi WNW 5.8 mph - N/A   Clear
9:57 AM 75.0 °F 37.0 °F 25% 29.99 in 10.0 mi SW 9.2 mph - N/A   Clear
10:57 AM 75.9 °F 37.9 °F 25% 29.99 in 10.0 mi South 11.5 mph - N/A   Clear
11:57 AM 75.9 °F 34.0 °F 22% 29.99 in 10.0 mi South 11.5 mph - N/A   Clear
12:57 PM 78.1 °F 33.1 °F 19% 29.97 in 10.0 mi South 11.5 mph - N/A   Clear
1:57 PM 78.1 °F 34.0 °F 20% 29.96 in 10.0 mi South 11.5 mph 20.7 mph N/A   Clear
2:57 PM 79.0 °F 32.0 °F 18% 29.94 in 10.0 mi SW 11.5 mph - N/A   Clear
3:57 PM 78.1 °F 32.0 °F 19% 29.91 in 10.0 mi Variable 4.6 mph - N/A   Clear
4:57 PM 77.0 °F 36.0 °F 23% 29.91 in 10.0 mi SSW 10.4 mph 18.4 mph N/A   Clear
5:57 PM 75.0 °F 37.0 °F 25% 29.91 in 10.0 mi SW 10.4 mph - N/A   Clear
6:57 PM 66.9 °F 37.0 °F 33% 29.93 in 10.0 mi SSW 6.9 mph - N/A   Clear
7:57 PM 63.0 °F 37.9 °F 40% 29.90 in 10.0 mi SW 5.8 mph - N/A   Clear
8:57 PM 59.0 °F 37.0 °F 44% 29.90 in 10.0 mi SSW 3.5 mph - N/A   Clear
9:57 PM 54.0 °F 35.1 °F 49% 29.91 in 10.0 mi Calm Calm - N/A   Clear
10:57 PM 51.1 °F 35.1 °F 54% 29.92 in 10.0 mi Calm Calm - N/A   Clear
11:57 PM 51.1 °F 36.0 °F 56% 29.92 in 10.0 mi Calm Calm - N/A   Clear